[Date Prev][Date Next][Thread Prev][Thread Next] - [Date Index][Thread Index][Author Index]
2 Line ISS Keps 10-25
- Subject: [sarex] 2 Line ISS Keps 10-25
- From: "Dave Larsen PhD" <doc@xxxxxxxxxxx>
- Date: Sat, 25 Oct 2003 04:14:41 -0700
ISS
1 25544U 98067A 03298.14217593 .00019773 00000-0 22058-3 0 7001
2 25544 51.6308 85.1967 0006584 75.2021 269.6660 15.62780592281305
----
Via the sarex mailing list at AMSAT.ORG courtesy of AMSAT-NA.
To unsubscribe, send "unsubscribe sarex" to Majordomo@amsat.org
AMSAT Home